Tampa Macdill AFB, FL

10:46 AM EDT on June 28, 2017 (GMT -0400)
MacDill Air Force Base

Weather History for KMCF - May, 2013

Change the Weather History Date:

Tuesday, May 21, 2013

  Actual Average Record
Temperature  
Mean Temperature 78 °F -  
Max Temperature 91 °F 86 °F 91 °F (2001)
Min Temperature 67 °F 68 °F 61 °F (2014)
Cooling Degree Days 13    
Growing Degree Days 28 (Base 50)    
Moisture  
Dew Point 71 °F    
Average Humidity 87    
Maximum Humidity 100    
Minimum Humidity 48    
Precipitation  
Precipitation 0.94 in - - ()
Sea Level Pressure  
Sea Level Pressure 29.99 in    
Wind  
Wind Speed 8 mph (ENE)    
Max Wind Speed 22 mph    
Max Gust Speed 25 mph    
Visibility 8 miles    
Events Fog , Rain , Thunderstorm    
Averages and records for this station are not official NWS values.
T = Trace of Precipitation, MM = Missing Value Source: NWS Daily Summary

Daily Weather History Graph

Daily Weather History Graph

Search for Another Location

Airport or City:

Trip Planner

Search our weather history database for the weather conditions in past years. The results will help you decide how hot, cold, wet, or windy it might be!

Date:

Astronomy

May. 21, 2013 Rise Set
Actual Time 6:37 AM EDT 8:16 PM EDT
Civil Twilight 6:11 AM EDT 8:41 PM EDT
Nautical Twilight 5:40 AM EDT 9:12 PM EDT
Astronomical Twilight 5:08 AM EDT 9:45 PM EDT
Moon 4:45 PM EDT (5/21) 3:45 AM EDT (5/21)
Length of Visible Light 14h 30m
Length of Day
13h 38m
Waxing Gibbous, 84% of the Moon is Illuminated
May 21
Waxing Gibbous
May 25
Full
May 31
Last Quarter
Jun 8
New
Jun 16
First Quarter

Hourly Weather History & Observations

Time (EDT) Temp. Heat Index Dew Point Humidity Pressure Visibility Wind Dir Wind Speed Gust Speed Precip Events Conditions
12:58 AM 68.9 °F - 68.4 °F 98% 30.03 in 10.0 mi ENE 5.8 mph - N/A   Clear
1:58 AM 70.5 °F - 70.2 °F 99% 30.02 in 10.0 mi ESE 8.1 mph - N/A   Clear
2:58 AM 69.6 °F - 69.4 °F 99% 30.01 in 10.0 mi East 8.1 mph - N/A   Clear
3:58 AM 69.1 °F - 69.1 °F 100% 30.00 in 10.0 mi ESE 8.1 mph - N/A   Clear
4:58 AM 68.5 °F - 68.5 °F 100% 30.00 in 10.0 mi ESE 5.8 mph - N/A   Clear
5:58 AM 69.3 °F - 69.3 °F 100% 30.00 in 10.0 mi ESE 4.6 mph - N/A   Clear
6:58 AM 67.8 °F - 67.8 °F 100% 30.01 in 10.0 mi Calm Calm - N/A   Clear
7:58 AM 72.3 °F - 72.3 °F 100% 30.03 in 10.0 mi ESE 5.8 mph - N/A   Clear
8:58 AM 76.1 °F - 72.0 °F 87% 30.05 in 10.0 mi Variable 5.8 mph - N/A   Clear
9:58 AM 78.8 °F - 71.8 °F 79% 30.05 in 10.0 mi South 6.9 mph - N/A   Clear
10:58 AM 82.9 °F 88.8 °F 73.0 °F 72% 30.06 in 10.0 mi Variable 3.5 mph - N/A   Partly Cloudy
11:58 AM 85.5 °F 92.6 °F 73.4 °F 67% 30.05 in 10.0 mi Variable 4.6 mph - N/A   Clear
12:58 PM 86.4 °F 93.8 °F 73.2 °F 65% 30.02 in 10.0 mi Variable 4.6 mph - N/A   Mostly Cloudy
1:58 PM 86.9 °F 93.3 °F 71.8 °F 61% 30.00 in 10.0 mi SW 6.9 mph - N/A   Mostly Cloudy
2:58 PM 89.2 °F 92.4 °F 67.3 °F 48% 29.97 in 10.0 mi WSW 8.1 mph - N/A   Clear
3:58 PM 89.1 °F 93.7 °F 69.6 °F 52% 29.95 in 10.0 mi WSW 8.1 mph - N/A Thunderstorm Clear
4:23 PM 87.8 °F 91.4 °F 68.0 °F 52% 29.95 in 10.0 mi ENE 17.3 mph 21.9 mph N/A   Scattered Clouds
4:51 PM 80.6 °F 83.9 °F 69.8 °F 70% 29.97 in 9.0 mi North 15.0 mph 19.6 mph N/A Rain , Thunderstorm Light Rain
4:53 PM 78.8 °F - 69.8 °F 74% 29.97 in 8.0 mi North 15.0 mph 19.6 mph N/A Rain , Thunderstorm Light Thunderstorms and Rain
4:58 PM 79.0 °F - 69.3 °F 72% 29.98 in 5.0 mi North 20.7 mph 21.9 mph 0.01 in Rain , Thunderstorm Light Thunderstorms and Rain
5:03 PM 77.0 °F - 69.8 °F 78% 29.98 in 1.8 mi North 21.9 mph 25.3 mph N/A Rain , Thunderstorm Heavy Thunderstorms and Rain
5:08 PM 75.2 °F - 69.8 °F 83% 29.98 in 1.0 mi NNE 15.0 mph 25.3 mph N/A Rain , Thunderstorm Heavy Thunderstorms and Rain
5:13 PM 73.4 °F - 69.8 °F 88% 29.99 in 0.5 mi NNE 16.1 mph - N/A Fog , Rain , Thunderstorm Heavy Thunderstorms and Rain
5:23 PM 71.6 °F - 69.8 °F 94% 29.99 in 1.0 mi NNE 8.1 mph - N/A Rain , Thunderstorm Heavy Thunderstorms and Rain
5:28 PM 69.8 °F - 69.8 °F 100% 30.00 in 3.0 mi North 9.2 mph - N/A Rain , Thunderstorm Heavy Thunderstorms and Rain
5:50 PM 69.8 °F - 69.8 °F 100% 29.99 in 8.0 mi North 8.1 mph - N/A Rain , Thunderstorm Light Rain
5:58 PM 70.2 °F - 69.8 °F 99% 29.99 in 7.0 mi North 5.8 mph - 0.90 in Rain Rain
6:13 PM 71.6 °F - 71.6 °F 100% 29.97 in 9.0 mi North 5.8 mph - N/A Rain Rain
6:18 PM 71.6 °F - 71.6 °F 100% 29.96 in 10.0 mi NNE 3.5 mph - N/A Rain Light Rain
6:32 PM 71.6 °F - 71.6 °F 100% 29.96 in 10.0 mi NE 4.6 mph - N/A   Partly Cloudy
6:58 PM 72.3 °F - 72.3 °F 100% 29.97 in 10.0 mi ENE 6.9 mph - 0.03 in   Scattered Clouds
7:58 PM 73.2 °F - 72.7 °F 98% 29.99 in 10.0 mi East 6.9 mph - N/A   Mostly Cloudy
8:58 PM 73.0 °F - 71.8 °F 96% 29.97 in 10.0 mi East 6.9 mph - N/A   Overcast
9:58 PM 72.3 °F - 72.0 °F 99% 29.98 in 10.0 mi ESE 6.9 mph - N/A   Clear
10:58 PM 72.1 °F - 72.1 °F 100% 29.98 in 10.0 mi ESE 4.6 mph - N/A   Clear
11:58 PM 71.8 °F - 71.8 °F 100% 29.98 in 10.0 mi East 4.6 mph - N/A   Clear